Meadville, PA

6:57 AM EDT on March 27, 2017 (GMT -0400)
Port Meadville

Weather History for KGKJ - July, 2014

Change the Weather History Date:

Tuesday, July 29, 2014

  Actual Average Record
Temperature  
Mean Temperature 60 °F -  
Max Temperature 66 °F 80 °F 94 °F (1993)
Min Temperature 53 °F 56 °F 47 °F (1972)
Degree Days  
Heating Degree Days 6    
Growing Degree Days 10 (Base 50)    
Moisture  
Dew Point 50 °F    
Average Humidity 74    
Maximum Humidity 89    
Minimum Humidity 56    
Precipitation  
Precipitation 0.00 in - - ()
Sea Level Pressure  
Sea Level Pressure 29.98 in    
Wind  
Wind Speed 4 mph (West)    
Max Wind Speed 10 mph    
Max Gust Speed -    
Visibility 10 miles    
Events      
Averages and records for this station are not official NWS values.
T = Trace of Precipitation, MM = Missing Value Source: NWS Daily Summary

Daily Weather History Graph

Daily Weather History Graph

Search for Another Location

Airport or City:

Trip Planner

Search our weather history database for the weather conditions in past years. The results will help you decide how hot, cold, wet, or windy it might be!

Date:

Astronomy

Jul. 29, 2014 Rise Set
Actual Time 6:12 AM EDT 8:41 PM EDT
Civil Twilight 5:40 AM EDT 9:13 PM EDT
Nautical Twilight 5:01 AM EDT 9:52 PM EDT
Astronomical Twilight 4:17 AM EDT 10:36 PM EDT
Moon 8:50 AM EDT (7/29) 9:50 PM EDT (7/29)
Length of Visible Light 15h 32m
Length of Day
14h 29m
Waxing Crescent, 7% of the Moon is Illuminated
Jul 29
Waxing Crescent
Aug 3
First Quarter
Aug 10
Full
Aug 17
Last Quarter
Aug 25
New

Hourly Weather History & Observations

Time (EDT) Temp. Dew Point Humidity Pressure Visibility Wind Dir Wind Speed Gust Speed Precip Events Conditions
12:53 AM 53.1 °F 46.9 °F 80% 29.93 in 10.0 mi West 4.6 mph - N/A   Overcast
1:18 AM 53.1 °F 46.9 °F 80% 29.93 in 10.0 mi Variable 4.6 mph - N/A   Overcast
1:53 AM 53.1 °F 46.9 °F 80% 29.93 in 10.0 mi West 3.5 mph - N/A   Overcast
2:53 AM 53.1 °F 48.0 °F 83% 29.93 in 10.0 mi West 4.6 mph - N/A   Overcast
3:53 AM 53.1 °F 48.9 °F 86% 29.93 in 10.0 mi WSW 3.5 mph - N/A   Overcast
4:53 AM 53.1 °F 48.9 °F 86% 29.93 in 10.0 mi SW 3.5 mph - N/A   Overcast
5:53 AM 53.1 °F 50.0 °F 89% 29.94 in 10.0 mi WSW 3.5 mph - N/A   Overcast
6:02 AM 53.1 °F 50.0 °F 89% 29.94 in 10.0 mi SW 3.5 mph - N/A   Overcast
6:53 AM 54.0 °F 50.0 °F 86% 29.95 in 10.0 mi SW 3.5 mph - N/A   Overcast
7:53 AM 55.9 °F 51.1 °F 84% 29.96 in 10.0 mi WSW 3.5 mph - N/A   Mostly Cloudy
8:53 AM 57.0 °F 52.0 °F 83% 29.98 in 10.0 mi WSW 3.5 mph - N/A   Overcast
9:30 AM 57.0 °F 52.0 °F 83% 29.99 in 10.0 mi Calm Calm - N/A   Overcast
9:51 AM 57.2 °F 51.8 °F 82% 29.99 in 10.0 mi Calm Calm - N/A   Overcast
10:53 AM 63.0 °F 46.9 °F 56% 29.99 in 10.0 mi Variable 3.5 mph - N/A   Overcast
11:53 AM 62.1 °F 48.9 °F 62% 30.00 in 10.0 mi North - - N/A   Mostly Cloudy
12:53 PM 63.0 °F 48.0 °F 58% 30.01 in 10.0 mi NNW 6.9 mph - N/A   Overcast
1:53 PM 62.1 °F 50.0 °F 65% 30.00 in 10.0 mi West 10.4 mph - N/A   Overcast
2:53 PM 66.0 °F 50.0 °F 56% 30.00 in 10.0 mi WNW 8.1 mph - N/A   Mostly Cloudy
3:53 PM 64.0 °F 50.0 °F 60% 29.99 in 10.0 mi WNW 6.9 mph - N/A   Mostly Cloudy
4:53 PM 66.0 °F 50.0 °F 56% 29.99 in 10.0 mi West 8.1 mph - N/A   Partly Cloudy
5:53 PM 64.9 °F 48.9 °F 56% 30.00 in 10.0 mi WNW 6.9 mph - N/A   Partly Cloudy
6:53 PM 64.0 °F 48.9 °F 58% 30.01 in 10.0 mi West 5.8 mph - N/A   Partly Cloudy
7:53 PM 62.1 °F 52.0 °F 70% 30.01 in 10.0 mi Calm Calm - N/A   Scattered Clouds
8:53 PM 59.0 °F 51.1 °F 75% 30.02 in 10.0 mi Calm Calm - N/A   Clear
9:53 PM 55.9 °F 51.1 °F 84% 30.03 in 10.0 mi Calm Calm - N/A   Clear
10:53 PM 57.9 °F 52.0 °F 81% 30.02 in 10.0 mi Calm Calm - N/A   Overcast
11:53 PM 57.0 °F 51.1 °F 81% 30.01 in 10.0 mi Calm Calm - N/A   Scattered Clouds